Find Starlink 33584

NORAD ID: 62761 Int'l Des: 2025-015 Owner: SPXS Country: US Constellation: starlink operational
LEOCIRCULAR

Current View

Loading 3D Globe...

About Starlink 33584

Starlink 33584 (NORAD 62761) is a starlink constellation satellite (v2 mini) launched Jan 21, 2025 by SPXS of US. It operates in LEO, CIRCULAR orbit with a mass of 575.00 kg.

About Starlink 33584

Description loading...

Upcoming Passes

Passes for default location (London). Set your location on the main map for personalized predictions.

Altitude History

Loading altitude history...

Two-Line Element Set

1 62761U 25015D 26173.35572205 .00012673 00000-0 38559-3 0 9995
2 62761 53.1569 195.0436 0001004 73.4278 286.6834 15.34397375 80526
Epoch: Jun 22, 2026 • Age: 21 hours

Current Status

Altitude 463.2 km
Velocity 7.64 km/s
Sub-Earth Point 23.23°N, 1.79°W
Launch Date Jan 21, 2025
Age 1.4 years
Type internet

Technical Details

Classification Payload
Mass 575.00 kg
Dry Mass 530.00 kg
Total Mass 575.00 kg
Length 0.30 m
Diameter 4.10 m
Span 29.00 m
Shape Box + pan
Manufacturer SPXS
Bus Type Starlink V2MO
Phase Status In Orbit
Owner/State SPXS/US

Most Searched